TimeEST,TemperatureF,Dew PointF,Humidity,Sea Level PressureIn,VisibilityMPH,Wind Direction,Wind SpeedMPH,Gust SpeedMPH,PrecipitationIn,Events,Conditions,WindDirDegrees,DateUTC
12:52 AM,30.0,21.0,69,30.53,10.0,WSW,5.8,-,N/A,,Overcast,250,2014-01-10 05:52:00
1:52 AM,30.0,21.0,69,30.52,10.0,Variable,4.6,-,N/A,,Overcast,0,2014-01-10 06:52:00
2:52 AM,30.0,21.9,72,30.51,10.0,WSW,4.6,-,N/A,,Overcast,240,2014-01-10 07:52:00
3:52 AM,30.0,23.0,75,30.49,10.0,Calm,Calm,-,N/A,,Overcast,0,2014-01-10 08:52:00
4:52 AM,30.9,24.1,76,30.46,10.0,Calm,Calm,-,0.00,Rain,Freezing Rain,0,2014-01-10 09:52:00
5:11 AM,30.2,26.6,86,30.44,6.0,Calm,Calm,-,0.01,Rain,Light Freezing Rain,0,2014-01-10 10:11:00
5:52 AM,30.9,26.1,82,30.46,7.0,Variable,3.5,-,0.04,Rain,Light Freezing Rain,0,2014-01-10 10:52:00
6:52 AM,30.9,28.9,92,30.46,4.0,Calm,Calm,-,0.08,Rain,Light Freezing Rain,0,2014-01-10 11:52:00
7:52 AM,30.9,30.0,96,30.46,3.0,Calm,Calm,-,0.08,Rain,Light Freezing Rain,0,2014-01-10 12:52:00
8:09 AM,30.2,30.2,100,30.44,2.0,Calm,Calm,-,0.03,Rain,Light Freezing Rain,0,2014-01-10 13:09:00
8:16 AM,30.2,30.2,100,30.45,1.5,South,3.5,-,0.05,Rain,Light Freezing Rain,170,2014-01-10 13:16:00
8:22 AM,30.2,30.2,100,30.45,1.2,SW,5.8,-,0.06,Rain,Light Freezing Rain,230,2014-01-10 13:22:00
8:52 AM,30.9,30.0,96,30.46,1.2,Variable,3.5,-,0.10,Rain,Light Freezing Rain,0,2014-01-10 13:52:00
8:55 AM,30.2,30.2,100,30.45,1.2,SW,5.8,-,0.00,Rain,Light Freezing Rain,230,2014-01-10 13:55:00
9:26 AM,30.2,30.2,100,30.44,1.2,Calm,Calm,-,0.02,Rain,Light Freezing Rain,0,2014-01-10 14:26:00
9:52 AM,32.0,30.9,96,30.45,1.2,Variable,3.5,-,0.02,,Light Freezing Drizzle,0,2014-01-10 14:52:00
9:59 AM,32.0,30.2,93,30.44,1.8,Calm,Calm,-,0.00,,Light Freezing Drizzle,0,2014-01-10 14:59:00
10:17 AM,33.8,32.0,93,30.43,2.0,Variable,3.5,-,0.00,Rain,Light Rain,0,2014-01-10 15:17:00
10:37 AM,33.8,30.2,87,30.43,1.5,WSW,4.6,-,0.01,,Overcast,240,2014-01-10 15:37:00
10:52 AM,33.1,32.0,96,30.43,1.8,Variable,4.6,-,0.01,,Overcast,0,2014-01-10 15:52:00
10:54 AM,33.8,32.0,93,30.42,0.5,NNW,4.6,-,N/A,,Overcast,330,2014-01-10 15:54:00
11:23 AM,33.8,32.0,93,30.40,1.0,Variable,3.5,-,N/A,,Overcast,0,2014-01-10 16:23:00
11:52 AM,34.0,32.0,92,30.40,1.0,Calm,Calm,-,N/A,,Overcast,0,2014-01-10 16:52:00
12:52 PM,34.0,32.0,92,30.36,1.0,Variable,4.6,-,0.00,Rain,Light Rain,0,2014-01-10 17:52:00
1:52 PM,34.0,33.1,96,30.35,1.0,Calm,Calm,-,0.00,,Overcast,0,2014-01-10 18:52:00
2:52 PM,35.1,34.0,96,30.33,1.5,Calm,Calm,-,0.01,,Light Drizzle,0,2014-01-10 19:52:00
3:39 PM,35.6,33.8,93,30.31,1.2,Calm,Calm,-,0.01,Rain,Light Rain,0,2014-01-10 20:39:00
3:52 PM,35.1,34.0,96,30.31,1.2,NE,3.5,-,0.02,Rain,Light Rain,50,2014-01-10 20:52:00
4:52 PM,35.1,34.0,96,30.31,1.0,Calm,Calm,-,0.03,Rain,Light Rain,0,2014-01-10 21:52:00
5:02 PM,35.6,33.8,93,30.30,0.2,SW,5.8,-,0.00,Rain,Light Rain,230,2014-01-10 22:02:00
5:29 PM,33.8,33.8,100,30.29,1.0,Calm,Calm,-,0.01,Rain,Light Rain,0,2014-01-10 22:29:00
5:40 PM,35.6,33.8,93,30.29,1.0,Calm,Calm,-,0.01,Rain,Light Rain,0,2014-01-10 22:40:00
5:52 PM,35.1,34.0,96,30.30,1.0,NE,3.5,-,0.02,Rain,Light Rain,50,2014-01-10 22:52:00
5:59 PM,35.6,33.8,93,30.29,1.0,Calm,Calm,-,0.00,Rain,Light Rain,0,2014-01-10 22:59:00
6:40 PM,33.8,33.8,100,30.29,0.8,Calm,Calm,-,0.01,,Light Drizzle,0,2014-01-10 23:40:00
6:52 PM,35.1,34.0,96,30.30,0.8,Calm,Calm,-,0.01,,Light Drizzle,0,2014-01-10 23:52:00
7:02 PM,35.6,33.8,93,30.28,0.8,Variable,3.5,-,0.00,,Light Drizzle,0,2014-01-11 00:02:00
7:52 PM,35.1,34.0,96,30.27,0.8,North,3.5,-,0.01,,Light Drizzle,350,2014-01-11 00:52:00
8:52 PM,34.0,34.0,100,30.24,0.8,Calm,Calm,-,0.03,,Light Drizzle,0,2014-01-11 01:52:00
9:03 PM,33.8,33.8,100,30.24,1.0,WSW,5.8,-,0.00,,Light Drizzle,250,2014-01-11 02:03:00
9:29 PM,35.6,33.8,93,30.22,1.0,North,4.6,-,0.01,Rain,Light Rain,350,2014-01-11 02:29:00
9:52 PM,35.1,34.0,96,30.21,1.2,North,3.5,-,0.02,Rain,Light Rain,10,2014-01-11 02:52:00
10:24 PM,35.6,33.8,93,30.19,1.2,Variable,3.5,-,0.01,Rain,Light Rain,0,2014-01-11 03:24:00
10:38 PM,33.8,33.8,100,30.18,1.0,Variable,4.6,-,0.02,Rain,Light Rain,0,2014-01-11 03:38:00
10:52 PM,34.0,34.0,100,30.19,1.0,WSW,5.8,-,0.03,Rain,Light Rain,240,2014-01-11 03:52:00
11:14 PM,33.8,33.8,100,30.17,1.5,WSW,6.9,-,0.00,Rain,Light Rain,240,2014-01-11 04:14:00
11:52 PM,34.0,34.0,100,30.15,0.8,Calm,Calm,-,0.02,Rain,Light Rain,0,2014-01-11 04:52:00